Starlink 30778

operational
NORAD ID: 58182 Int'l Des: 2023-167 Owner: SPXS Country: US Constellation: starlink
LEOCIRCULAR

关于 Starlink 30778

正在加载描述...

实时位置

正在加载3D地球...

即将过境

高度历史

Altitude vs Time

uPlot chart will show altitude changes over time

两行轨道根数

1 58182U 23167H 25350.96642712 .00002489 00000-0 19914-3 0 9995
2 58182 43.0019 235.2454 0000881 248.7149 111.3600 15.02555416118512
Epoch: Dec 16, 2025 • Age: 6 hours

当前状态

高度 567.8 km
速度 7.58 km/s
星下点 -32.70°S, 24.36°E
发射日期 Oct 30, 2023
运行时间 2.1 years
类型 internet

技术详情

分类 Payload
质量 730.00 kg
干质量 700.00 kg
总质量 730.00 kg
长度 0.30 m
直径 4.10 m
跨度 29.00 m
形状 Box + pan
制造商 SPXS
平台类型 Starlink V2M
阶段状态 In Orbit
所有者/国家 SPXS/US

大型星座

Loading constellations...